World > North America > United States > Ohio

Liberty Township, Ohio Regional Weather

Lat: 39.43N, Lon: 84.57W
Wx Zone: OHZ070Web Search

Helpful Tip: Abbreviated, 7 Day, 14 Day Forecasts. There is a weather forecast for every taste.

Feedback
Liberty Township Weather Map
UTC Time: 9/19/2020, 12:35
Your Time:

Liberty Township, OH Regional Weather

Expires:202009191300;;047733
ASUS41 KCLE 191212
RWRCLE
OHIO REGIONAL WEATHER ROUNDUP
NATIONAL WEATHER SERVICE WILMINGTON, OH
800 AM EDT SAT SEP 19 2020

NOTE: "FAIR" INDICATES FEW OR NO CLOUDS BELOW 12,000 FEET WITH NO
SIGNIFICANT WEATHER AND/OR OBSTRUCTIONS TO VISIBILITY.


OHZ042-051>053-060>062-070>072-077>081-191300-
  SOUTHWEST OHIO
  
CITY           SKY/WX    TMP DP  RH WIND       PRES   REMARKS
CINC-COVINGTON FAIR      47  39  74 NE13      30.32R                  
CINC-LUNKEN    FAIR      43  39  86 NE5       30.35R                  
HAMILTON       FAIR      40  38  93 CALM      30.34S                  
DAYTON         FAIR      41  37  86 NE5       30.36R                  
WRIGHT-PAT AFB FAIR      41  37  85 NE7       30.35R                  
DAYTON GENERAL FAIR      44  40  85 NE7       30.33S                  
WILMINGTON     FAIR      41  38  89 NE9       30.33S                  
$$


SKY/WX - Weather  TMP - Temperature  DP - Dew Point  RH - Relative Humidity
WIND - Wind Direction/Speed PRES - Barometric Pressure VSB - Visibility
WCI - Wind Chill Index E13G22 Wind - East Wind 13 mph/Gusts of 22 mph